Time,TemperatureF,DewpointF,PressureIn,WindDirection,WindDirectionDegrees,WindSpeedMPH,WindSpeedGustMPH,Humidity,HourlyPrecipIn,Conditions,Clouds,dailyrainin,SoftwareType,DateUTC
2013-11-23 00:02:00,19.5,12.9,29.69,NNW,338,22.8,22.8,75,0.00,,---,0.02,VWS V13.01,2013-11-23 06:02:00,
2013-11-23 00:07:00,19.2,12.3,29.69,NNW,338,16.0,16.0,74,0.00,,---,0.00,VWS V13.01,2013-11-23 06:07:00,
2013-11-23 00:12:00,19.2,12.3,29.69,NNW,338,14.6,14.6,74,0.00,,---,0.00,VWS V13.01,2013-11-23 06:12:00,
2013-11-23 00:17:00,19.0,11.8,29.69,NNW,338,10.2,10.2,73,0.00,,---,0.00,VWS V13.01,2013-11-23 06:17:00,
2013-11-23 00:22:00,18.6,11.1,29.70,NNW,338,10.2,10.2,72,0.00,,---,0.00,VWS V13.01,2013-11-23 06:22:00,
2013-11-23 00:27:00,18.3,10.5,29.70,NNW,338,0.0,0.0,71,0.00,,---,0.00,VWS V13.01,2013-11-23 06:27:00,
2013-11-23 00:32:00,18.3,10.8,29.70,NNW,338,0.0,0.0,72,0.00,,---,0.00,VWS V13.01,2013-11-23 06:32:00,
2013-11-23 00:37:00,17.9,10.4,29.70,NNW,338,4.8,4.8,72,0.00,,---,0.00,VWS V13.01,2013-11-23 06:37:00,
2013-11-23 00:42:00,17.7,10.2,29.70,NNW,338,4.8,4.8,72,0.00,,---,0.00,VWS V13.01,2013-11-23 06:42:00,
2013-11-23 00:47:00,17.7,10.2,29.71,NNW,338,0.0,0.0,72,0.00,,---,0.00,VWS V13.01,2013-11-23 06:47:00,
2013-11-23 00:52:00,17.4,9.6,29.70,NNW,338,29.0,29.0,71,0.00,,---,0.00,VWS V13.01,2013-11-23 06:52:00,
2013-11-23 00:57:00,17.2,9.4,29.71,NNW,338,9.8,9.8,71,0.00,,---,0.00,VWS V13.01,2013-11-23 06:57:00,
2013-11-23 01:02:00,17.2,9.4,29.71,NNW,338,3.0,3.0,71,0.00,,---,0.00,VWS V13.01,2013-11-23 07:02:00,
2013-11-23 01:07:00,16.8,9.0,29.72,NNW,338,20.0,20.0,71,0.00,,---,0.00,VWS V13.01,2013-11-23 07:07:00,
2013-11-23 01:12:00,16.7,8.9,29.72,NNW,338,26.8,26.8,71,0.00,,---,0.00,VWS V13.01,2013-11-23 07:12:00,
2013-11-23 01:17:00,16.5,8.8,29.72,NNW,338,20.4,20.4,71,0.00,,---,0.00,VWS V13.01,2013-11-23 07:17:00,
2013-11-23 01:22:00,16.3,8.6,29.73,NNW,338,8.4,8.4,71,0.00,,---,0.00,VWS V13.01,2013-11-23 07:22:00,
2013-11-23 01:27:00,15.9,8.2,29.73,NNW,338,15.6,15.6,71,0.00,,---,0.00,VWS V13.01,2013-11-23 07:27:00,
2013-11-23 01:32:00,15.6,7.6,29.74,NNW,338,0.0,0.0,70,0.00,,---,0.00,VWS V13.01,2013-11-23 07:32:00,
2013-11-23 01:37:00,15.2,6.9,29.73,NNW,338,3.0,24.0,69,0.00,,---,0.00,VWS V13.01,2013-11-23 07:37:00,
2013-11-23 01:42:00,14.7,6.4,29.74,NNW,338,20.0,20.0,69,0.00,,---,0.00,VWS V13.01,2013-11-23 07:42:00,
2013-11-23 01:47:00,14.5,6.2,29.74,NNW,338,16.4,16.4,69,0.00,,---,0.00,VWS V13.01,2013-11-23 07:47:00,
2013-11-23 01:52:00,14.0,5.7,29.74,NNW,338,28.0,28.0,69,0.00,,---,0.00,VWS V13.01,2013-11-23 07:52:00,
2013-11-23 01:57:00,13.8,5.8,29.75,NNW,338,3.4,3.4,70,0.00,,---,0.00,VWS V13.01,2013-11-23 07:57:00,
2013-11-23 02:02:00,13.6,5.7,29.75,NNW,338,10.2,10.2,70,0.00,,---,0.00,VWS V13.01,2013-11-23 08:02:00,
2013-11-23 02:07:00,13.2,5.3,29.75,NNW,338,5.8,10.6,70,0.00,,---,0.00,VWS V13.01,2013-11-23 08:07:00,
2013-11-23 02:12:00,13.2,5.3,29.75,NNW,338,22.2,22.2,70,0.00,,---,0.00,VWS V13.01,2013-11-23 08:12:00,
2013-11-23 02:17:00,12.9,5.0,29.74,NNW,338,0.0,0.0,70,0.00,,---,0.00,VWS V13.01,2013-11-23 08:17:00,
2013-11-23 02:22:00,12.7,4.8,29.75,NNW,338,38.0,38.0,70,0.00,,---,0.00,VWS V13.01,2013-11-23 08:22:00,
2013-11-23 02:27:00,12.5,4.6,29.75,NNW,338,6.6,6.6,70,0.00,,---,0.00,VWS V13.01,2013-11-23 08:27:00,
2013-11-23 02:32:00,12.3,4.7,29.76,NNW,338,21.0,21.0,71,0.00,,---,0.00,VWS V13.01,2013-11-23 08:32:00,
2013-11-23 02:37:00,12.0,4.1,29.76,NNW,338,14.6,14.6,70,0.00,,---,0.00,VWS V13.01,2013-11-23 08:37:00,
2013-11-23 02:42:00,12.0,4.4,29.75,NNW,338,17.4,17.4,71,0.00,,---,0.00,VWS V13.01,2013-11-23 08:42:00,
2013-11-23 02:47:00,11.8,4.2,29.76,NNW,338,0.0,0.0,71,0.00,,---,0.00,VWS V13.01,2013-11-23 08:47:00,
2013-11-23 02:52:00,11.4,3.8,29.76,NNW,338,0.0,15.2,71,0.00,,---,0.00,VWS V13.01,2013-11-23 08:52:00,
2013-11-23 02:57:00,11.3,3.7,29.76,NNW,338,17.4,17.4,71,0.00,,---,0.00,VWS V13.01,2013-11-23 08:57:00,
2013-11-23 03:02:00,11.1,3.5,29.77,NNW,338,0.0,0.0,71,0.00,,---,0.00,VWS V13.01,2013-11-23 09:02:00,
2013-11-23 03:07:00,11.1,3.8,29.77,NNW,338,0.0,21.0,72,0.00,,---,0.00,VWS V13.01,2013-11-23 09:07:00,
2013-11-23 03:12:00,10.9,3.4,29.77,NNW,338,3.0,3.0,71,0.00,,---,0.00,VWS V13.01,2013-11-23 09:12:00,
2013-11-23 03:17:00,10.7,3.2,29.77,NNW,338,0.0,0.0,71,0.00,,---,0.00,VWS V13.01,2013-11-23 09:17:00,
2013-11-23 03:22:00,10.5,3.3,29.77,NNW,338,5.2,11.6,72,0.00,,---,0.00,VWS V13.01,2013-11-23 09:22:00,
2013-11-23 03:27:00,10.5,3.3,29.77,NNW,338,10.2,10.2,72,0.00,,---,0.00,VWS V13.01,2013-11-23 09:27:00,
2013-11-23 03:32:00,10.4,3.2,29.77,NNW,338,0.0,0.0,72,0.00,,---,0.00,VWS V13.01,2013-11-23 09:32:00,
2013-11-23 03:37:00,10.2,3.0,29.77,NNW,338,0.0,0.0,72,0.00,,---,0.00,VWS V13.01,2013-11-23 09:37:00,
2013-11-23 03:42:00,10.2,3.0,29.77,NNW,338,9.2,9.2,72,0.00,,---,0.00,VWS V13.01,2013-11-23 09:42:00,
2013-11-23 03:47:00,10.2,3.0,29.77,NNW,338,26.8,26.8,72,0.00,,---,0.00,VWS V13.01,2013-11-23 09:47:00,
2013-11-23 03:52:00,10.0,2.8,29.78,NNW,338,0.0,13.8,72,0.00,,---,0.00,VWS V13.01,2013-11-23 09:52:00,
2013-11-23 03:57:00,10.0,3.1,29.78,NNW,338,12.4,12.4,73,0.00,,---,0.00,VWS V13.01,2013-11-23 09:57:00,
2013-11-23 04:02:00,10.0,3.1,29.78,NNW,338,14.6,14.6,73,0.00,,---,0.00,VWS V13.01,2013-11-23 10:02:00,
2013-11-23 04:07:00,9.8,2.6,29.79,NNW,338,7.6,14.6,72,0.00,,---,0.00,VWS V13.01,2013-11-23 10:07:00,
2013-11-23 04:12:00,9.6,2.4,29.79,NNW,338,0.0,0.0,72,0.00,,---,0.00,VWS V13.01,2013-11-23 10:12:00,
2013-11-23 04:17:00,9.6,2.4,29.79,NNW,338,8.4,8.4,72,0.00,,---,0.00,VWS V13.01,2013-11-23 10:17:00,
2013-11-23 04:22:00,9.6,2.4,29.79,NNW,338,3.4,3.4,72,0.00,,---,0.00,VWS V13.01,2013-11-23 10:22:00,
2013-11-23 04:27:00,9.6,2.7,29.79,NNW,338,0.0,0.0,73,0.00,,---,0.00,VWS V13.01,2013-11-23 10:27:00,
2013-11-23 04:32:00,9.5,2.6,29.80,NNW,338,0.0,0.0,73,0.00,,---,0.00,VWS V13.01,2013-11-23 10:32:00,
2013-11-23 04:37:00,9.3,2.4,29.80,NNW,338,0.0,0.0,73,0.00,,---,0.00,VWS V13.01,2013-11-23 10:37:00,
2013-11-23 04:42:00,9.1,2.2,29.80,NNW,338,0.0,0.0,73,0.00,,---,0.00,VWS V13.01,2013-11-23 10:42:00,
2013-11-23 04:47:00,9.1,2.2,29.80,NNW,338,0.0,0.0,73,0.00,,---,0.00,VWS V13.01,2013-11-23 10:47:00,
2013-11-23 04:52:00,9.1,2.2,29.81,NNW,338,16.0,16.0,73,0.00,,---,0.00,VWS V13.01,2013-11-23 10:52:00,
2013-11-23 04:57:00,9.1,2.2,29.82,NNW,338,11.6,11.6,73,0.00,,---,0.00,VWS V13.01,2013-11-23 10:57:00,
2013-11-23 05:02:00,9.1,2.2,29.82,NNW,338,3.0,3.0,73,0.00,,---,0.00,VWS V13.01,2013-11-23 11:02:00,
2013-11-23 05:07:00,9.1,2.5,29.82,NNW,338,4.0,12.0,74,0.00,,---,0.00,VWS V13.01,2013-11-23 11:07:00,
2013-11-23 05:12:00,8.9,2.3,29.82,NNW,338,0.0,0.0,74,0.00,,---,0.00,VWS V13.01,2013-11-23 11:12:00,
2013-11-23 05:17:00,8.9,2.3,29.83,NNW,338,0.0,0.0,74,0.00,,---,0.00,VWS V13.01,2013-11-23 11:17:00,
2013-11-23 05:22:00,8.6,2.0,29.83,NNW,338,0.0,6.6,74,0.00,,---,0.00,VWS V13.01,2013-11-23 11:22:00,
2013-11-23 05:27:00,8.6,2.0,29.83,NNW,338,11.6,11.6,74,0.00,,---,0.00,VWS V13.01,2013-11-23 11:27:00,
2013-11-23 05:32:00,8.4,2.1,29.83,NNW,338,11.0,11.0,75,0.00,,---,0.00,VWS V13.01,2013-11-23 11:32:00,
2013-11-23 05:37:00,8.2,1.9,29.83,NNW,338,0.0,10.2,75,0.00,,---,0.00,VWS V13.01,2013-11-23 11:37:00,
2013-11-23 05:42:00,8.2,1.9,29.83,NNW,338,15.2,15.2,75,0.00,,---,0.00,VWS V13.01,2013-11-23 11:42:00,
2013-11-23 05:47:00,8.0,1.7,29.84,NNW,338,6.6,6.6,75,0.00,,---,0.00,VWS V13.01,2013-11-23 11:47:00,
2013-11-23 05:52:00,7.8,1.5,29.84,NNW,338,4.0,11.6,75,0.00,,---,0.00,VWS V13.01,2013-11-23 11:52:00,
2013-11-23 05:57:00,7.8,1.5,29.85,NNW,338,0.0,0.0,75,0.00,,---,0.00,VWS V13.01,2013-11-23 11:57:00,
2013-11-23 06:02:00,7.7,1.4,29.85,NNW,338,0.0,0.0,75,0.00,,---,0.00,VWS V13.01,2013-11-23 12:02:00,
2013-11-23 06:07:00,7.5,1.2,29.85,NNW,338,9.2,17.0,75,0.00,,---,0.00,VWS V13.01,2013-11-23 12:07:00,
2013-11-23 06:12:00,7.5,1.2,29.85,NNW,338,0.0,0.0,75,0.00,,---,0.00,VWS V13.01,2013-11-23 12:12:00,
2013-11-23 06:17:00,7.5,1.2,29.86,NNW,338,0.0,0.0,75,0.00,,---,0.00,VWS V13.01,2013-11-23 12:17:00,
2013-11-23 06:22:00,7.3,1.0,29.86,NNW,338,0.0,0.0,75,0.00,,---,0.00,VWS V13.01,2013-11-23 12:22:00,
2013-11-23 06:27:00,7.1,0.9,29.85,NNW,338,0.0,0.0,75,0.00,,---,0.00,VWS V13.01,2013-11-23 12:27:00,
2013-11-23 06:32:00,7.1,0.9,29.86,NNW,338,0.0,0.0,75,0.00,,---,0.00,VWS V13.01,2013-11-23 12:32:00,
2013-11-23 06:37:00,6.9,0.7,29.86,NNW,338,0.0,0.0,75,0.00,,---,0.00,VWS V13.01,2013-11-23 12:37:00,
2013-11-23 06:42:00,6.9,0.7,29.86,NNW,338,0.0,0.0,75,0.00,,---,0.00,VWS V13.01,2013-11-23 12:42:00,
2013-11-23 06:47:00,6.9,0.9,29.86,NNW,338,0.0,0.0,76,0.00,,---,0.00,VWS V13.01,2013-11-23 12:47:00,
2013-11-23 06:52:00,6.8,0.9,29.87,NNW,338,4.0,13.8,76,0.00,,---,0.00,VWS V13.01,2013-11-23 12:52:00,
2013-11-23 06:57:00,6.6,0.7,29.88,NNW,338,0.0,0.0,76,0.00,,---,0.00,VWS V13.01,2013-11-23 12:57:00,
2013-11-23 07:02:00,6.6,0.7,29.88,NNW,338,10.6,10.6,76,0.00,,---,0.00,VWS V13.01,2013-11-23 13:02:00,
2013-11-23 07:07:00,6.6,0.7,29.89,NNW,338,3.0,13.4,76,0.00,,---,0.00,VWS V13.01,2013-11-23 13:07:00,
2013-11-23 07:12:00,6.6,0.7,29.89,NNW,338,10.2,10.2,76,0.00,,---,0.00,VWS V13.01,2013-11-23 13:12:00,
2013-11-23 07:17:00,6.6,0.7,29.90,NNW,338,0.0,0.0,76,0.00,,---,0.00,VWS V13.01,2013-11-23 13:17:00,
2013-11-23 07:22:00,6.6,0.7,29.90,NNW,338,9.8,9.8,76,0.00,,---,0.00,VWS V13.01,2013-11-23 13:22:00,
2013-11-23 07:27:00,6.6,0.7,29.90,NNW,338,0.0,0.0,76,0.00,,---,0.00,VWS V13.01,2013-11-23 13:27:00,
2013-11-23 07:32:00,6.6,0.7,29.91,NNW,338,2.6,2.6,76,0.00,,---,0.00,VWS V13.01,2013-11-23 13:32:00,
2013-11-23 07:37:00,6.6,0.7,29.91,NNW,338,4.4,11.6,76,0.00,,---,0.00,VWS V13.01,2013-11-23 13:37:00,
2013-11-23 07:42:00,6.6,0.7,29.91,NNW,338,11.0,11.0,76,0.00,,---,0.00,VWS V13.01,2013-11-23 13:42:00,
2013-11-23 07:47:00,6.6,0.9,29.92,NNW,338,26.8,26.8,77,0.00,,---,0.00,VWS V13.01,2013-11-23 13:47:00,
2013-11-23 07:52:00,6.6,0.9,29.93,NNW,338,10.2,10.2,77,0.00,,---,0.00,VWS V13.01,2013-11-23 13:52:00,
2013-11-23 07:57:00,6.6,0.9,29.93,NNW,338,0.0,0.0,77,0.00,,---,0.00,VWS V13.01,2013-11-23 13:57:00,
2013-11-23 08:02:00,6.8,1.1,29.94,NNW,338,6.6,6.6,77,0.00,,---,0.00,VWS V13.01,2013-11-23 14:02:00,
2013-11-23 08:07:00,6.6,0.9,29.94,NNW,338,16.0,16.0,77,0.00,,---,0.00,VWS V13.01,2013-11-23 14:07:00,
2013-11-23 08:12:00,6.9,1.2,29.95,NNW,338,12.8,12.8,77,0.00,,---,0.00,VWS V13.01,2013-11-23 14:12:00,
2013-11-23 08:17:00,6.9,1.2,29.95,NNW,338,12.0,12.0,77,0.00,,---,0.00,VWS V13.01,2013-11-23 14:17:00,
2013-11-23 08:22:00,7.1,1.4,29.95,NNW,338,0.0,9.2,77,0.00,,---,0.00,VWS V13.01,2013-11-23 14:22:00,
2013-11-23 08:27:00,7.3,1.6,29.96,NNW,338,12.4,12.4,77,0.00,,---,0.00,VWS V13.01,2013-11-23 14:27:00,
2013-11-23 08:32:00,7.3,1.3,29.97,NNW,338,12.4,12.4,76,0.00,,---,0.00,VWS V13.01,2013-11-23 14:32:00,
2013-11-23 08:37:00,7.5,1.5,29.97,NNW,338,9.2,12.4,76,0.00,,---,0.00,VWS V13.01,2013-11-23 14:37:00,
2013-11-23 08:42:00,7.5,1.5,29.97,NNW,338,0.0,0.0,76,0.00,,---,0.00,VWS V13.01,2013-11-23 14:42:00,
2013-11-23 08:47:00,7.5,1.5,29.98,NNW,338,16.4,16.4,76,0.00,,---,0.00,VWS V13.01,2013-11-23 14:47:00,
2013-11-23 08:52:00,7.7,1.7,29.98,NNW,338,35.6,35.6,76,0.00,,---,0.00,VWS V13.01,2013-11-23 14:52:00,
2013-11-23 08:57:00,7.8,1.8,29.98,NNW,338,1.2,1.2,76,0.00,,---,0.00,VWS V13.01,2013-11-23 14:57:00,
2013-11-23 09:02:00,8.0,2.0,29.99,NNW,338,14.6,14.6,76,0.00,,---,0.00,VWS V13.01,2013-11-23 15:02:00,
2013-11-23 09:07:00,8.2,2.2,29.99,NNW,338,12.8,14.6,76,0.00,,---,0.00,VWS V13.01,2013-11-23 15:07:00,
2013-11-23 09:12:00,8.4,2.4,30.00,NNW,338,0.0,0.0,76,0.00,,---,0.00,VWS V13.01,2013-11-23 15:12:00,
2013-11-23 09:17:00,8.4,2.1,30.00,NNW,338,0.0,0.0,75,0.00,,---,0.00,VWS V13.01,2013-11-23 15:17:00,
2013-11-23 09:22:00,8.9,2.6,30.00,NNW,338,13.4,13.4,75,0.00,,---,0.00,VWS V13.01,2013-11-23 15:22:00,
2013-11-23 09:27:00,8.9,2.6,30.00,NNW,338,7.6,7.6,75,0.00,,---,0.00,VWS V13.01,2013-11-23 15:27:00,
2013-11-23 09:32:00,9.1,2.5,30.00,NNW,338,0.0,0.0,74,0.00,,---,0.00,VWS V13.01,2013-11-23 15:32:00,
2013-11-23 09:37:00,9.5,2.9,30.00,NNW,338,14.6,14.6,74,0.00,,---,0.00,VWS V13.01,2013-11-23 15:37:00,
2013-11-23 09:42:00,9.5,2.9,30.00,NNW,338,6.2,6.2,74,0.00,,---,0.00,VWS V13.01,2013-11-23 15:42:00,
2013-11-23 09:47:00,9.6,3.0,30.00,NNW,338,0.0,0.0,74,0.00,,---,0.00,VWS V13.01,2013-11-23 15:47:00,
2013-11-23 09:52:00,10.0,3.1,30.00,NNW,338,11.0,11.0,73,0.00,,---,0.00,VWS V13.01,2013-11-23 15:52:00,
2013-11-23 09:58:00,10.0,3.1,30.01,NNW,338,18.6,18.6,73,0.00,,---,0.00,VWS V13.01,2013-11-23 15:58:00,
2013-11-23 10:03:00,10.2,3.3,30.01,NNW,338,0.0,8.0,73,0.00,,---,0.00,VWS V13.01,2013-11-23 16:03:00,
2013-11-23 10:08:00,10.5,3.6,30.01,NNW,338,29.8,29.8,73,0.00,,---,0.00,VWS V13.01,2013-11-23 16:08:00,
2013-11-23 10:14:00,10.5,3.3,30.01,NNW,338,0.0,0.0,72,0.00,,---,0.00,VWS V13.01,2013-11-23 16:14:00,
2013-11-23 10:19:00,10.7,3.5,30.01,NNW,338,6.6,6.6,72,0.00,,---,0.00,VWS V13.01,2013-11-23 16:19:00,
2013-11-23 10:24:00,11.1,3.8,30.01,NNW,338,0.0,5.8,72,0.00,,---,0.00,VWS V13.01,2013-11-23 16:24:00,
2013-11-23 10:29:00,11.1,3.5,30.01,NNW,338,0.0,0.0,71,0.00,,---,0.00,VWS V13.01,2013-11-23 16:29:00,
2013-11-23 10:35:00,11.4,3.8,30.01,NNW,338,18.2,18.2,71,0.00,,---,0.00,VWS V13.01,2013-11-23 16:35:00,
2013-11-23 10:40:00,11.4,3.5,30.01,NNW,338,6.6,6.6,70,0.00,,---,0.00,VWS V13.01,2013-11-23 16:40:00,
2013-11-23 10:45:00,11.8,3.9,30.01,NNW,338,9.2,9.2,70,0.00,,---,0.00,VWS V13.01,2013-11-23 16:45:00,
2013-11-23 10:50:00,12.0,4.1,30.00,NNW,338,13.8,13.8,70,0.00,,---,0.00,VWS V13.01,2013-11-23 16:50:00,
2013-11-23 10:55:00,12.3,4.4,30.00,NNW,338,10.2,10.2,70,0.00,,---,0.00,VWS V13.01,2013-11-23 16:55:00,
2013-11-23 11:00:00,12.5,4.3,30.00,NNW,338,0.0,0.0,69,0.00,,---,0.00,VWS V13.01,2013-11-23 17:00:00,
2013-11-23 11:05:00,12.7,4.5,30.00,NNW,338,12.0,17.8,69,0.00,,---,0.00,VWS V13.01,2013-11-23 17:05:00,
2013-11-23 11:11:00,12.7,4.2,30.00,NNW,338,6.2,14.2,68,0.00,,---,0.00,VWS V13.01,2013-11-23 17:11:00,
2013-11-23 11:16:00,12.5,4.0,30.00,NNW,338,0.0,0.0,68,0.00,,---,0.00,VWS V13.01,2013-11-23 17:16:00,
2013-11-23 11:21:00,12.7,4.2,30.00,NNW,338,0.0,0.0,68,0.00,,---,0.00,VWS V13.01,2013-11-23 17:21:00,
2013-11-23 11:27:00,12.9,4.3,29.99,NNW,338,15.6,15.6,68,0.00,,---,0.00,VWS V13.01,2013-11-23 17:27:00,
2013-11-23 11:32:00,13.1,4.2,29.99,NNW,338,0.0,0.0,67,0.00,,---,0.00,VWS V13.01,2013-11-23 17:32:00,
2013-11-23 11:37:00,13.2,4.3,29.99,NNW,338,12.4,12.4,67,0.00,,---,0.00,VWS V13.01,2013-11-23 17:37:00,
2013-11-23 11:42:00,13.2,4.0,29.99,NNW,338,0.0,0.0,66,0.00,,---,0.00,VWS V13.01,2013-11-23 17:42:00,
2013-11-23 11:47:00,13.6,4.7,29.98,NNW,338,0.0,0.0,67,0.00,,---,0.00,VWS V13.01,2013-11-23 17:47:00,
2013-11-23 11:52:00,13.8,4.6,29.99,NNW,338,0.0,12.4,66,0.00,,---,0.00,VWS V13.01,2013-11-23 17:52:00,
2013-11-23 11:57:00,13.8,4.6,29.99,NNW,338,0.0,0.0,66,0.00,,---,0.00,VWS V13.01,2013-11-23 17:57:00,
2013-11-23 12:03:00,13.8,4.6,30.00,NNW,338,0.0,0.4,66,0.00,,---,0.00,VWS V13.01,2013-11-23 18:03:00,
2013-11-23 12:08:00,14.1,4.8,29.99,NNW,338,14.6,14.6,66,0.00,,---,0.00,VWS V13.01,2013-11-23 18:08:00,
2013-11-23 12:13:00,14.1,4.5,29.99,NNW,338,0.0,0.8,65,0.00,,---,0.00,VWS V13.01,2013-11-23 18:13:00,
2013-11-23 12:18:00,14.1,4.5,29.99,NNW,338,12.4,12.4,65,0.00,,---,0.00,VWS V13.01,2013-11-23 18:18:00,
2013-11-23 12:23:00,14.3,4.4,29.99,NNW,338,19.6,19.6,64,0.00,,---,0.00,VWS V13.01,2013-11-23 18:23:00,
2013-11-23 12:28:00,14.7,5.1,29.99,NNW,338,21.0,21.0,65,0.00,,---,0.00,VWS V13.01,2013-11-23 18:28:00,
2013-11-23 12:33:00,14.7,4.8,29.99,NNW,338,0.0,0.0,64,0.00,,---,0.00,VWS V13.01,2013-11-23 18:33:00,
2013-11-23 12:38:00,14.9,5.3,30.00,NNW,338,0.0,0.0,65,0.00,,---,0.00,VWS V13.01,2013-11-23 18:38:00,
2013-11-23 12:43:00,15.0,5.0,30.00,NNW,338,0.0,0.0,64,0.00,,---,0.00,VWS V13.01,2013-11-23 18:43:00,
2013-11-23 12:49:00,15.2,5.2,30.00,NNW,338,5.8,5.8,64,0.00,,---,0.00,VWS V13.01,2013-11-23 18:49:00,
2013-11-23 12:54:00,15.4,5.4,29.99,NNW,338,0.0,3.0,64,0.00,,---,0.00,VWS V13.01,2013-11-23 18:54:00,
2013-11-23 12:59:00,15.6,5.6,29.99,NNW,338,8.4,8.4,64,0.00,,---,0.00,VWS V13.01,2013-11-23 18:59:00,
2013-11-23 13:05:00,15.4,5.1,30.00,NNW,338,20.4,20.4,63,0.00,,---,0.00,VWS V13.01,2013-11-23 19:05:00,
2013-11-23 13:10:00,15.4,5.1,30.00,NNW,338,11.6,11.6,63,0.00,,---,0.00,VWS V13.01,2013-11-23 19:10:00,
2013-11-23 13:15:00,15.4,5.1,30.00,NNW,338,0.0,0.0,63,0.00,,---,0.00,VWS V13.01,2013-11-23 19:15:00,
2013-11-23 13:20:00,15.6,5.3,30.00,NNW,338,8.0,11.0,63,0.00,,---,0.00,VWS V13.01,2013-11-23 19:20:00,
2013-11-23 13:25:00,15.6,5.3,29.99,NNW,338,0.0,0.0,63,0.00,,---,0.00,VWS V13.01,2013-11-23 19:25:00,
2013-11-23 13:30:00,15.8,5.1,29.99,NNW,338,0.0,0.0,62,0.00,,---,0.00,VWS V13.01,2013-11-23 19:30:00,
2013-11-23 13:35:00,15.6,4.9,29.99,NNW,338,0.0,21.0,62,0.00,,---,0.00,VWS V13.01,2013-11-23 19:35:00,
2013-11-23 13:40:00,15.6,5.3,29.99,NNW,338,11.0,11.0,63,0.00,,---,0.00,VWS V13.01,2013-11-23 19:40:00,
2013-11-23 13:45:00,15.6,4.9,29.99,NNW,338,2.2,3.0,62,0.00,,---,0.00,VWS V13.01,2013-11-23 19:45:00,
2013-11-23 13:50:00,15.4,4.4,29.99,NNW,338,0.0,0.0,61,0.00,,---,0.00,VWS V13.01,2013-11-23 19:50:00,
2013-11-23 13:55:00,15.4,4.7,29.98,NNW,338,0.0,0.0,62,0.00,,---,0.00,VWS V13.01,2013-11-23 19:55:00,
2013-11-23 14:00:00,15.6,4.9,29.98,NNW,338,0.0,4.0,62,0.00,,---,0.00,VWS V13.01,2013-11-23 20:00:00,
2013-11-23 14:05:00,15.6,4.9,29.98,NNW,338,9.2,9.2,62,0.00,,---,0.00,VWS V13.01,2013-11-23 20:05:00,
2013-11-23 14:10:00,15.8,5.1,29.98,NNW,338,1.6,1.6,62,0.00,,---,0.00,VWS V13.01,2013-11-23 20:10:00,
2013-11-23 14:15:00,15.8,5.1,29.98,NNW,338,0.0,0.0,62,0.00,,---,0.00,VWS V13.01,2013-11-23 20:15:00,
2013-11-23 14:20:00,15.6,4.9,29.97,NNW,338,0.4,0.4,62,0.00,,---,0.00,VWS V13.01,2013-11-23 20:20:00,
2013-11-23 14:25:00,15.6,4.9,29.97,NNW,338,0.0,0.0,62,0.00,,---,0.00,VWS V13.01,2013-11-23 20:25:00,
2013-11-23 14:30:00,15.6,4.9,29.97,NNW,338,0.0,0.0,62,0.00,,---,0.00,VWS V13.01,2013-11-23 20:30:00,
2013-11-23 14:35:00,15.9,5.6,29.97,NNW,338,0.0,0.0,63,0.00,,---,0.00,VWS V13.01,2013-11-23 20:35:00,
2013-11-23 14:40:00,15.9,5.2,29.97,NNW,338,0.0,0.0,62,0.00,,---,0.00,VWS V13.01,2013-11-23 20:40:00,
2013-11-23 14:45:00,15.6,4.9,29.96,NNW,338,1.2,2.2,62,0.00,,---,0.00,VWS V13.01,2013-11-23 20:45:00,
2013-11-23 14:50:00,15.6,4.9,29.96,NNW,338,0.0,0.8,62,0.00,,---,0.00,VWS V13.01,2013-11-23 20:50:00,
2013-11-23 14:55:00,15.6,4.9,29.96,NNW,338,0.0,0.0,62,0.00,,---,0.00,VWS V13.01,2013-11-23 20:55:00,
2013-11-23 15:00:00,15.6,5.3,29.95,NNW,338,0.8,0.8,63,0.00,,---,0.00,VWS V13.01,2013-11-23 21:00:00,
2013-11-23 15:05:00,15.6,4.9,29.95,NNW,338,0.0,0.0,62,0.00,,---,0.00,VWS V13.01,2013-11-23 21:05:00,
2013-11-23 15:10:00,15.6,4.9,29.95,NNW,338,0.0,0.0,62,0.00,,---,0.00,VWS V13.01,2013-11-23 21:10:00,
2013-11-23 15:15:00,15.8,5.1,29.95,NNW,338,0.0,0.0,62,0.00,,---,0.00,VWS V13.01,2013-11-23 21:15:00,
2013-11-23 15:20:00,15.8,5.1,29.95,NNW,338,0.8,0.8,62,0.00,,---,0.00,VWS V13.01,2013-11-23 21:20:00,
2013-11-23 15:25:00,15.6,4.9,29.95,NNW,338,0.0,0.0,62,0.00,,---,0.00,VWS V13.01,2013-11-23 21:25:00,
2013-11-23 15:30:00,15.8,5.1,29.95,NNW,338,0.0,0.0,62,0.00,,---,0.00,VWS V13.01,2013-11-23 21:30:00,
2013-11-23 15:35:00,15.6,4.9,29.94,NNW,338,0.0,0.0,62,0.00,,---,0.00,VWS V13.01,2013-11-23 21:35:00,
2013-11-23 15:40:00,15.8,4.8,29.94,NNW,338,4.0,4.0,61,0.00,,---,0.00,VWS V13.01,2013-11-23 21:40:00,
2013-11-23 15:45:00,15.9,4.8,29.95,NNW,338,0.0,0.0,61,0.00,,---,0.00,VWS V13.01,2013-11-23 21:45:00,
2013-11-23 15:50:00,15.8,4.8,29.95,NNW,338,0.0,0.0,61,0.00,,---,0.00,VWS V13.01,2013-11-23 21:50:00,
2013-11-23 15:55:00,15.8,4.8,29.95,NNW,338,0.0,0.0,61,0.00,,---,0.00,VWS V13.01,2013-11-23 21:55:00,
2013-11-23 16:00:00,15.6,4.6,29.95,NNW,338,0.0,0.0,61,0.00,,---,0.00,VWS V13.01,2013-11-23 22:00:00,
2013-11-23 16:05:00,15.6,4.9,29.95,NNW,338,0.0,0.0,62,0.00,,---,0.00,VWS V13.01,2013-11-23 22:05:00,
2013-11-23 16:10:00,15.4,4.7,29.95,NNW,338,0.0,0.0,62,0.00,,---,0.00,VWS V13.01,2013-11-23 22:10:00,
2013-11-23 16:15:00,15.2,4.5,29.95,NNW,338,0.0,0.0,62,0.00,,---,0.00,VWS V13.01,2013-11-23 22:15:00,
2013-11-23 16:20:00,15.0,4.3,29.95,NNW,338,0.0,0.0,62,0.00,,---,0.00,VWS V13.01,2013-11-23 22:20:00,
2013-11-23 16:25:00,14.7,4.1,29.95,NNW,338,0.0,0.0,62,0.00,,---,0.00,VWS V13.01,2013-11-23 22:25:00,
2013-11-23 16:30:00,14.7,4.1,29.95,NNW,338,0.0,0.0,62,0.00,,---,0.00,VWS V13.01,2013-11-23 22:30:00,
2013-11-23 16:35:00,14.5,3.9,29.95,NNW,338,4.4,4.4,62,0.00,,---,0.00,VWS V13.01,2013-11-23 22:35:00,
2013-11-23 16:40:00,14.3,3.7,29.94,NNW,338,0.0,0.0,62,0.00,,---,0.00,VWS V13.01,2013-11-23 22:40:00,
2013-11-23 16:45:00,14.1,3.5,29.94,NNW,338,0.0,0.0,62,0.00,,---,0.00,VWS V13.01,2013-11-23 22:45:00,
2013-11-23 16:50:00,13.8,3.2,29.94,NNW,338,0.0,0.0,62,0.00,,---,0.00,VWS V13.01,2013-11-23 22:50:00,
2013-11-23 16:55:00,13.8,3.2,29.94,NNW,338,0.0,0.0,62,0.00,,---,0.00,VWS V13.01,2013-11-23 22:55:00,
2013-11-23 17:00:00,13.6,3.4,29.95,NNW,338,0.0,0.0,63,0.00,,---,0.00,VWS V13.01,2013-11-23 23:00:00,
2013-11-23 17:05:00,13.2,3.0,29.94,NNW,338,0.0,0.0,63,0.00,,---,0.00,VWS V13.01,2013-11-23 23:05:00,
2013-11-23 17:10:00,13.2,3.0,29.95,NNW,338,0.0,0.0,63,0.00,,---,0.00,VWS V13.01,2013-11-23 23:10:00,
2013-11-23 17:15:00,12.9,2.7,29.95,NNW,338,0.0,0.0,63,0.00,,---,0.00,VWS V13.01,2013-11-23 23:15:00,
2013-11-23 17:16:00,12.9,2.7,29.95,NNW,338,0.0,0.0,63,0.00,,---,0.00,VWS V13.01,2013-11-23 23:16:00,
2013-11-23 17:21:00,12.7,2.8,29.95,NNW,338,0.0,0.0,64,0.00,,---,0.00,VWS V13.01,2013-11-23 23:21:00,
2013-11-23 17:26:00,12.5,2.7,29.95,NNW,338,0.0,0.0,64,0.00,,---,0.00,VWS V13.01,2013-11-23 23:26:00,
2013-11-23 17:31:00,12.3,2.5,29.95,NNW,338,0.0,0.0,64,0.00,,---,0.00,VWS V13.01,2013-11-23 23:31:00,
2013-11-23 17:36:00,12.2,2.7,29.95,NNW,338,0.0,0.0,65,0.00,,---,0.00,VWS V13.01,2013-11-23 23:36:00,
2013-11-23 17:41:00,12.0,2.5,29.95,NNW,338,0.0,0.0,65,0.00,,---,0.00,VWS V13.01,2013-11-23 23:41:00,
2013-11-23 17:46:00,12.0,2.5,29.95,NNW,338,0.0,0.0,65,0.00,,---,0.00,VWS V13.01,2013-11-23 23:46:00,
2013-11-23 17:51:00,12.0,2.5,29.95,NNW,338,0.0,0.0,65,0.00,,---,0.00,VWS V13.01,2013-11-23 23:51:00,
2013-11-23 17:56:00,12.0,2.5,29.94,NNW,338,0.0,0.0,65,0.00,,---,0.00,VWS V13.01,2013-11-23 23:56:00,
2013-11-23 18:01:00,12.0,2.5,29.95,NNW,338,0.0,0.0,65,0.00,,---,0.00,VWS V13.01,2013-11-24 00:01:00,
2013-11-23 18:06:00,11.8,2.7,29.95,NNW,338,0.0,0.0,66,0.00,,---,0.00,VWS V13.01,2013-11-24 00:06:00,
2013-11-23 18:11:00,11.6,2.5,29.95,NNW,338,0.0,0.0,66,0.00,,---,0.00,VWS V13.01,2013-11-24 00:11:00,
2013-11-23 18:16:00,11.6,2.5,29.94,NNW,338,0.0,0.0,66,0.00,,---,0.00,VWS V13.01,2013-11-24 00:16:00,
2013-11-23 18:21:00,11.4,2.3,29.94,NNW,338,0.0,0.0,66,0.00,,---,0.00,VWS V13.01,2013-11-24 00:21:00,
2013-11-23 18:26:00,11.4,2.3,29.94,NNW,338,0.0,0.0,66,0.00,,---,0.00,VWS V13.01,2013-11-24 00:26:00,
2013-11-23 18:31:00,11.4,2.6,29.93,NNW,338,0.0,0.0,67,0.00,,---,0.00,VWS V13.01,2013-11-24 00:31:00,
2013-11-23 18:36:00,11.3,2.5,29.93,NNW,338,0.0,0.0,67,0.00,,---,0.00,VWS V13.01,2013-11-24 00:36:00,
2013-11-23 18:41:00,11.1,2.0,29.93,NNW,338,0.0,0.0,66,0.00,,---,0.00,VWS V13.01,2013-11-24 00:41:00,
2013-11-23 18:46:00,11.1,2.3,29.93,NNW,338,0.0,0.0,67,0.00,,---,0.00,VWS V13.01,2013-11-24 00:46:00,
2013-11-23 18:51:00,10.9,2.1,29.93,NNW,338,0.0,0.0,67,0.00,,---,0.00,VWS V13.01,2013-11-24 00:51:00,
2013-11-23 18:56:00,10.9,2.1,29.94,NNW,338,0.0,0.0,67,0.00,,---,0.00,VWS V13.01,2013-11-24 00:56:00,
2013-11-23 19:01:00,10.7,1.9,29.94,NNW,338,0.0,0.0,67,0.00,,---,0.00,VWS V13.01,2013-11-24 01:01:00,
2013-11-23 19:06:00,10.5,1.7,29.94,NNW,338,0.0,0.0,67,0.00,,---,0.00,VWS V13.01,2013-11-24 01:06:00,
2013-11-23 19:11:00,10.5,1.7,29.93,NNW,338,0.0,0.0,67,0.00,,---,0.00,VWS V13.01,2013-11-24 01:11:00,
2013-11-23 19:16:00,10.2,1.4,29.94,NNW,338,0.0,0.0,67,0.00,,---,0.00,VWS V13.01,2013-11-24 01:16:00,
2013-11-23 19:21:00,10.2,1.8,29.94,NNW,338,0.0,0.0,68,0.00,,---,0.00,VWS V13.01,2013-11-24 01:21:00,
2013-11-23 19:26:00,10.0,1.6,29.94,NNW,338,0.0,0.0,68,0.00,,---,0.00,VWS V13.01,2013-11-24 01:26:00,
2013-11-23 19:31:00,10.0,1.6,29.93,NNW,338,0.0,0.0,68,0.00,,---,0.00,VWS V13.01,2013-11-24 01:31:00,
2013-11-23 19:36:00,9.6,1.2,29.93,NNW,338,0.0,0.0,68,0.00,,---,0.00,VWS V13.01,2013-11-24 01:36:00,
2013-11-23 19:41:00,9.6,1.2,29.94,NNW,338,0.0,0.0,68,0.00,,---,0.00,VWS V13.01,2013-11-24 01:41:00,
2013-11-23 19:46:00,9.6,1.2,29.93,NNW,338,0.0,0.0,68,0.00,,---,0.00,VWS V13.01,2013-11-24 01:46:00,
2013-11-23 19:51:00,9.5,1.1,29.94,NNW,338,0.0,0.0,68,0.00,,---,0.00,VWS V13.01,2013-11-24 01:51:00,
2013-11-23 19:56:00,9.3,0.9,29.94,NNW,338,0.0,0.0,68,0.00,,---,0.00,VWS V13.01,2013-11-24 01:56:00,
2013-11-23 20:01:00,9.1,0.7,29.94,NNW,338,0.0,0.0,68,0.00,,---,0.00,VWS V13.01,2013-11-24 02:01:00,
2013-11-23 20:06:00,9.1,0.7,29.94,NNW,338,0.0,0.0,68,0.00,,---,0.00,VWS V13.01,2013-11-24 02:06:00,
2013-11-23 20:11:00,8.9,0.5,29.94,NNW,338,0.0,0.0,68,0.00,,---,0.00,VWS V13.01,2013-11-24 02:11:00,
2013-11-23 20:16:00,8.7,0.6,29.93,NNW,338,0.0,0.0,69,0.00,,---,0.00,VWS V13.01,2013-11-24 02:16:00,
2013-11-23 20:21:00,8.6,0.5,29.93,NNW,338,0.0,0.0,69,0.00,,---,0.00,VWS V13.01,2013-11-24 02:21:00,
2013-11-23 20:26:00,8.6,0.5,29.93,NNW,338,0.0,0.0,69,0.00,,---,0.00,VWS V13.01,2013-11-24 02:26:00,
2013-11-23 20:31:00,8.6,0.5,29.93,NNW,338,0.0,0.0,69,0.00,,---,0.00,VWS V13.01,2013-11-24 02:31:00,
2013-11-23 20:36:00,8.6,0.5,29.93,NNW,338,0.0,0.0,69,0.00,,---,0.00,VWS V13.01,2013-11-24 02:36:00,
2013-11-23 20:41:00,8.6,0.8,29.93,NNW,338,0.0,0.0,70,0.00,,---,0.00,VWS V13.01,2013-11-24 02:41:00,
2013-11-23 20:46:00,8.4,0.6,29.93,NNW,338,0.0,0.0,70,0.00,,---,0.00,VWS V13.01,2013-11-24 02:46:00,
2013-11-23 20:51:00,8.4,0.6,29.93,NNW,338,0.0,0.0,70,0.00,,---,0.00,VWS V13.01,2013-11-24 02:51:00,
2013-11-23 20:56:00,8.4,0.6,29.93,NNW,338,0.0,0.0,70,0.00,,---,0.00,VWS V13.01,2013-11-24 02:56:00,
2013-11-23 21:01:00,8.4,0.6,29.93,NNW,338,0.0,0.0,70,0.00,,---,0.00,VWS V13.01,2013-11-24 03:01:00,
2013-11-23 21:06:00,8.2,0.4,29.93,NNW,338,0.0,0.0,70,0.00,,---,0.00,VWS V13.01,2013-11-24 03:06:00,
2013-11-23 21:11:00,8.0,0.3,29.93,NNW,338,0.0,0.0,70,0.00,,---,0.00,VWS V13.01,2013-11-24 03:11:00,
2013-11-23 21:16:00,8.0,0.3,29.93,NNW,338,0.0,0.0,70,0.00,,---,0.00,VWS V13.01,2013-11-24 03:16:00,
2013-11-23 21:21:00,7.8,0.1,29.93,NNW,338,0.0,0.0,70,0.00,,---,0.00,VWS V13.01,2013-11-24 03:21:00,
2013-11-23 21:26:00,8.0,0.3,29.93,NNW,338,0.0,0.0,70,0.00,,---,0.00,VWS V13.01,2013-11-24 03:26:00,
2013-11-23 21:31:00,8.0,0.3,29.94,NNW,338,0.0,0.0,70,0.00,,---,0.00,VWS V13.01,2013-11-24 03:31:00,
2013-11-23 21:36:00,8.0,0.3,29.93,NNW,338,0.0,0.0,70,0.00,,---,0.00,VWS V13.01,2013-11-24 03:36:00,
2013-11-23 21:41:00,7.8,0.1,29.93,NNW,338,0.0,0.0,70,0.00,,---,0.00,VWS V13.01,2013-11-24 03:41:00,
2013-11-23 21:46:00,7.8,0.1,29.93,NNW,338,0.0,0.0,70,0.00,,---,0.00,VWS V13.01,2013-11-24 03:46:00,
2013-11-23 21:51:00,7.8,0.1,29.93,NNW,338,0.0,0.0,70,0.00,,---,0.00,VWS V13.01,2013-11-24 03:51:00,
2013-11-23 21:56:00,7.7,0.0,29.93,NNW,338,0.0,0.0,70,0.00,,---,0.00,VWS V13.01,2013-11-24 03:56:00,
2013-11-23 22:01:00,7.5,-0.2,29.93,NNW,338,0.0,0.0,70,0.00,,---,0.00,VWS V13.01,2013-11-24 04:01:00,
2013-11-23 22:06:00,7.5,0.1,29.93,NNW,338,0.0,0.0,71,0.00,,---,0.00,VWS V13.01,2013-11-24 04:06:00,
2013-11-23 22:11:00,7.3,-0.1,29.93,NNW,338,0.0,0.0,71,0.00,,---,0.00,VWS V13.01,2013-11-24 04:11:00,
2013-11-23 22:16:00,7.3,-0.1,29.93,NNW,338,0.0,0.0,71,0.00,,---,0.00,VWS V13.01,2013-11-24 04:16:00,
2013-11-23 22:21:00,7.1,-0.3,29.93,NNW,338,0.0,0.0,71,0.00,,---,0.00,VWS V13.01,2013-11-24 04:21:00,
2013-11-23 22:26:00,6.9,-0.5,29.93,NNW,338,0.0,0.0,71,0.00,,---,0.00,VWS V13.01,2013-11-24 04:26:00,
2013-11-23 22:31:00,6.9,-0.5,29.93,NNW,338,0.0,0.0,71,0.00,,---,0.00,VWS V13.01,2013-11-24 04:31:00,
2013-11-23 22:36:00,6.9,-0.5,29.93,NNW,338,0.0,0.0,71,0.00,,---,0.00,VWS V13.01,2013-11-24 04:36:00,
2013-11-23 22:41:00,6.9,-0.5,29.93,NNW,338,0.0,0.0,71,0.00,,---,0.00,VWS V13.01,2013-11-24 04:41:00,
2013-11-23 22:46:00,6.8,-0.6,29.93,NNW,338,0.0,0.0,71,0.00,,---,0.00,VWS V13.01,2013-11-24 04:46:00,
2013-11-23 22:51:00,6.6,-0.8,29.93,NNW,338,0.0,0.0,71,0.00,,---,0.00,VWS V13.01,2013-11-24 04:51:00,
2013-11-23 22:56:00,6.6,-0.8,29.93,NNW,338,0.0,0.0,71,0.00,,---,0.00,VWS V13.01,2013-11-24 04:56:00,
2013-11-23 23:01:00,6.6,-0.8,29.93,NNW,338,0.0,0.0,71,0.00,,---,0.00,VWS V13.01,2013-11-24 05:01:00,
2013-11-23 23:03:00,6.6,-0.5,29.94,NNW,338,0.0,0.0,72,0.00,,---,0.00,VWS V13.01,2013-11-24 05:03:00,
2013-11-23 23:04:00,6.4,-0.7,29.93,NNW,338,0.0,0.0,72,0.00,,---,0.00,VWS V13.01,2013-11-24 05:04:00,
2013-11-23 23:05:00,6.4,-0.7,29.93,NNW,338,0.0,0.0,72,0.00,,---,0.00,VWS V13.01,2013-11-24 05:05:00,
2013-11-23 23:07:00,6.4,-0.7,29.93,NNW,338,0.0,0.0,72,0.00,,---,0.00,VWS V13.01,2013-11-24 05:07:00,
2013-11-23 23:10:00,6.4,-0.7,29.93,NNW,338,0.0,0.0,72,0.00,,---,0.00,VWS V13.01,2013-11-24 05:10:00,
2013-11-23 23:16:00,6.4,-0.7,29.93,NNW,338,0.0,0.0,72,0.00,,---,0.00,VWS V13.01,2013-11-24 05:16:00,
2013-11-23 23:21:00,6.4,-0.7,29.93,NNW,338,0.0,0.0,72,0.00,,---,0.00,VWS V13.01,2013-11-24 05:21:00,
2013-11-23 23:26:00,6.4,-0.7,29.93,NNW,338,0.0,0.0,72,0.00,,---,0.00,VWS V13.01,2013-11-24 05:26:00,
2013-11-23 23:31:00,6.2,-0.9,29.93,NNW,338,0.0,0.0,72,0.00,,---,0.00,VWS V13.01,2013-11-24 05:31:00,
2013-11-23 23:36:00,6.0,-1.1,29.93,NNW,338,0.0,0.0,72,0.00,,---,0.00,VWS V13.01,2013-11-24 05:36:00,
2013-11-23 23:41:00,6.0,-1.1,29.93,NNW,338,0.0,0.0,72,0.00,,---,0.00,VWS V13.01,2013-11-24 05:41:00,
2013-11-23 23:46:00,6.0,-1.1,29.93,NNW,338,0.0,0.0,72,0.00,,---,0.00,VWS V13.01,2013-11-24 05:46:00,
2013-11-23 23:51:00,6.0,-1.1,29.92,NNW,338,0.0,0.0,72,0.00,,---,0.00,VWS V13.01,2013-11-24 05:51:00,
2013-11-23 23:56:00,5.9,-1.2,29.92,NNW,338,0.0,0.0,72,0.00,,---,0.00,VWS V13.01,2013-11-24 05:56:00,